Time,TemperatureF,DewpointF,PressureIn,WindDirection,WindDirectionDegrees,WindSpeedMPH,WindSpeedGustMPH,Humidity,HourlyPrecipIn,Conditions,Clouds,dailyrainin,SolarRadiationWatts/m^2,SoftwareType,DateUTC
2013-11-08 00:03:00,36.8,35.0,30.37,WSW,250,0.0,0.0,93,0.00,CLR,,0.00,0.0,WeatherDisplay:10.37,2013-11-08 06:03:00,
2013-11-08 00:08:00,36.7,34.9,30.37,WSW,250,0.0,0.0,93,0.00,CLR,,0.00,0.0,WeatherDisplay:10.37,2013-11-08 06:08:00,
2013-11-08 00:13:00,36.5,34.7,30.37,WSW,250,0.0,0.0,93,0.00,CLR,,0.00,0.0,WeatherDisplay:10.37,2013-11-08 06:13:00,
2013-11-08 00:18:00,36.4,34.6,30.37,WSW,250,0.0,0.0,93,0.00,CLR,,0.00,0.0,WeatherDisplay:10.37,2013-11-08 06:18:00,
2013-11-08 00:23:00,36.5,34.9,30.37,WSW,250,0.0,0.0,94,0.00,CLR,,0.00,0.0,WeatherDisplay:10.37,2013-11-08 06:23:00,
2013-11-08 00:28:00,36.5,34.9,30.37,WSW,250,0.0,0.0,94,0.00,CLR,,0.00,0.0,WeatherDisplay:10.37,2013-11-08 06:28:00,
2013-11-08 00:33:00,36.3,34.5,30.37,WSW,250,0.0,0.0,93,0.00,CLR,,0.00,0.0,WeatherDisplay:10.37,2013-11-08 06:33:00,
2013-11-08 00:38:00,36.2,34.4,30.37,WSW,250,0.0,0.0,93,0.00,CLR,,0.00,0.0,WeatherDisplay:10.37,2013-11-08 06:38:00,
2013-11-08 00:43:00,36.2,34.4,30.37,WSW,250,0.0,0.0,93,0.00,CLR,,0.00,0.0,WeatherDisplay:10.37,2013-11-08 06:43:00,
2013-11-08 00:48:00,36.3,34.5,30.37,WSW,250,0.0,0.0,93,0.00,CLR,,0.00,0.0,WeatherDisplay:10.37,2013-11-08 06:48:00,
2013-11-08 00:53:00,36.1,34.3,30.37,WSW,250,0.0,0.0,93,0.00,CLR,,0.00,0.0,WeatherDisplay:10.37,2013-11-08 06:53:00,
2013-11-08 00:58:00,36.0,34.4,30.37,WSW,250,0.0,0.0,94,0.00,CLR,,0.00,0.0,WeatherDisplay:10.37,2013-11-08 06:58:00,
2013-11-08 01:03:00,36.0,34.4,30.37,WSW,250,0.0,0.0,94,0.00,CLR,,0.00,0.0,WeatherDisplay:10.37,2013-11-08 07:03:00,
2013-11-08 01:08:00,35.9,34.3,30.37,WSW,250,0.0,0.0,94,0.00,CLR,,0.00,0.0,WeatherDisplay:10.37,2013-11-08 07:08:00,
2013-11-08 01:13:00,35.7,33.9,30.37,WSW,250,0.0,0.0,93,0.00,CLR,,0.00,0.0,WeatherDisplay:10.37,2013-11-08 07:13:00,
2013-11-08 01:18:00,35.6,33.8,30.37,WSW,250,0.0,0.0,93,0.00,CLR,,0.00,0.0,WeatherDisplay:10.37,2013-11-08 07:18:00,
2013-11-08 01:23:00,35.6,34.0,30.37,WSW,250,0.0,0.0,94,0.00,CLR,,0.00,0.0,WeatherDisplay:10.37,2013-11-08 07:23:00,
2013-11-08 01:28:00,35.6,34.0,30.37,WSW,250,0.0,0.0,94,0.00,CLR,,0.00,0.0,WeatherDisplay:10.37,2013-11-08 07:28:00,
2013-11-08 01:33:00,35.6,34.0,30.37,WSW,250,0.0,0.0,94,0.00,CLR,,0.00,0.0,WeatherDisplay:10.37,2013-11-08 07:33:00,
2013-11-08 01:38:00,35.4,33.8,30.37,WSW,250,0.0,0.0,94,0.00,CLR,,0.00,0.0,WeatherDisplay:10.37,2013-11-08 07:38:00,
2013-11-08 01:43:00,35.2,33.6,30.36,WSW,250,0.0,0.0,94,0.00,CLR,,0.00,0.0,WeatherDisplay:10.37,2013-11-08 07:43:00,
2013-11-08 01:48:00,35.3,33.7,30.36,WSW,250,0.0,0.0,94,0.00,CLR,,0.00,0.0,WeatherDisplay:10.37,2013-11-08 07:48:00,
2013-11-08 01:53:00,35.2,33.6,30.36,WSW,250,0.0,0.0,94,0.00,CLR,,0.00,0.0,WeatherDisplay:10.37,2013-11-08 07:53:00,
2013-11-08 01:58:00,35.1,33.5,30.36,WSW,250,0.0,0.0,94,0.00,CLR,,0.00,0.0,WeatherDisplay:10.37,2013-11-08 07:58:00,
2013-11-08 02:03:00,35.3,33.7,30.36,WSW,250,0.0,0.0,94,0.00,CLR,,0.00,0.0,WeatherDisplay:10.37,2013-11-08 08:03:00,
2013-11-08 02:08:00,35.4,33.8,30.36,WSW,250,0.0,0.0,94,0.00,CLR,,0.00,0.0,WeatherDisplay:10.37,2013-11-08 08:08:00,
2013-11-08 02:13:00,35.3,33.7,30.36,WSW,250,0.0,0.0,94,0.00,CLR,,0.00,0.0,WeatherDisplay:10.37,2013-11-08 08:13:00,
2013-11-08 02:18:00,35.0,33.4,30.36,WSW,250,0.0,0.0,94,0.00,CLR,,0.00,0.0,WeatherDisplay:10.37,2013-11-08 08:18:00,
2013-11-08 02:23:00,34.8,33.2,30.36,WSW,250,0.0,0.0,94,0.00,CLR,,0.00,0.0,WeatherDisplay:10.37,2013-11-08 08:23:00,
2013-11-08 02:28:00,34.8,33.2,30.36,WSW,250,0.0,0.0,94,0.00,CLR,,0.00,0.0,WeatherDisplay:10.37,2013-11-08 08:28:00,
2013-11-08 02:33:00,34.9,33.3,30.36,WSW,250,0.0,0.0,94,0.00,CLR,,0.00,0.0,WeatherDisplay:10.37,2013-11-08 08:33:00,
2013-11-08 02:38:00,34.9,33.3,30.36,WSW,250,0.0,0.0,94,0.00,CLR,,0.00,0.0,WeatherDisplay:10.37,2013-11-08 08:38:00,
2013-11-08 02:43:00,34.7,33.2,30.36,WSW,250,0.0,0.0,94,0.00,CLR,,0.00,0.0,WeatherDisplay:10.37,2013-11-08 08:43:00,
2013-11-08 02:48:00,34.6,33.1,30.36,WSW,250,0.0,0.0,94,0.00,CLR,,0.00,0.0,WeatherDisplay:10.37,2013-11-08 08:48:00,
2013-11-08 02:53:00,34.6,33.1,30.36,WSW,250,0.0,0.0,94,0.00,CLR,,0.00,0.0,WeatherDisplay:10.37,2013-11-08 08:53:00,
2013-11-08 02:58:00,34.3,32.8,30.36,WSW,250,0.0,0.0,94,0.00,CLR,,0.00,0.0,WeatherDisplay:10.37,2013-11-08 08:58:00,
2013-11-08 03:03:00,34.3,32.8,30.36,WSW,250,0.0,0.0,94,0.00,CLR,,0.00,0.0,WeatherDisplay:10.37,2013-11-08 09:03:00,
2013-11-08 03:08:00,34.3,32.8,30.36,WSW,250,0.0,0.0,94,0.00,CLR,,0.00,0.0,WeatherDisplay:10.37,2013-11-08 09:08:00,
2013-11-08 03:13:00,34.1,32.6,30.36,WSW,250,0.0,0.0,94,0.00,CLR,,0.00,0.0,WeatherDisplay:10.37,2013-11-08 09:13:00,
2013-11-08 03:18:00,34.0,32.5,30.36,WSW,250,0.0,0.0,94,0.00,CLR,,0.00,0.0,WeatherDisplay:10.37,2013-11-08 09:18:00,
2013-11-08 03:23:00,34.1,32.6,30.36,WSW,250,0.0,0.0,94,0.00,CLR,,0.00,0.0,WeatherDisplay:10.37,2013-11-08 09:23:00,
2013-11-08 03:28:00,34.3,32.8,30.36,WSW,250,0.0,0.0,94,0.00,CLR,,0.00,0.0,WeatherDisplay:10.37,2013-11-08 09:28:00,
2013-11-08 03:33:00,34.2,32.7,30.36,WSW,250,0.0,0.0,94,0.00,CLR,,0.00,0.0,WeatherDisplay:10.37,2013-11-08 09:33:00,
2013-11-08 03:38:00,34.0,32.5,30.36,WSW,250,0.0,0.0,94,0.00,CLR,,0.00,0.0,WeatherDisplay:10.37,2013-11-08 09:38:00,
2013-11-08 03:43:00,34.1,32.6,30.36,WSW,250,0.0,0.0,94,0.00,CLR,,0.00,0.0,WeatherDisplay:10.37,2013-11-08 09:43:00,
2013-11-08 03:48:00,34.3,32.8,30.36,WSW,250,0.0,0.0,94,0.00,CLR,,0.00,0.0,WeatherDisplay:10.37,2013-11-08 09:48:00,
2013-11-08 03:53:00,34.1,32.6,30.36,WSW,250,0.0,0.0,94,0.00,CLR,,0.00,0.0,WeatherDisplay:10.37,2013-11-08 09:53:00,
2013-11-08 03:58:00,34.0,32.5,30.36,WSW,250,0.0,0.0,94,0.00,CLR,,0.00,0.0,WeatherDisplay:10.37,2013-11-08 09:58:00,
2013-11-08 04:03:00,33.7,32.2,30.36,WSW,250,0.0,0.0,94,0.00,CLR,,0.00,0.0,WeatherDisplay:10.37,2013-11-08 10:03:00,
2013-11-08 04:08:00,33.7,32.2,30.36,WSW,250,0.0,0.0,94,0.00,CLR,,0.00,0.0,WeatherDisplay:10.37,2013-11-08 10:08:00,
2013-11-08 04:13:00,33.8,32.3,30.36,WSW,250,0.0,0.0,94,0.00,CLR,,0.00,0.0,WeatherDisplay:10.37,2013-11-08 10:13:00,
2013-11-08 04:18:00,33.8,32.3,30.36,WSW,250,0.0,0.0,94,0.00,CLR,,0.00,0.0,WeatherDisplay:10.37,2013-11-08 10:18:00,
2013-11-08 04:23:00,33.9,32.4,30.36,WSW,250,0.0,0.0,94,0.00,CLR,,0.00,0.0,WeatherDisplay:10.37,2013-11-08 10:23:00,
2013-11-08 04:28:00,33.8,32.3,30.35,WSW,250,0.0,0.0,94,0.00,CLR,,0.00,0.0,WeatherDisplay:10.37,2013-11-08 10:28:00,
2013-11-08 04:33:00,33.7,32.2,30.36,WSW,250,0.0,0.0,94,0.00,CLR,,0.00,0.0,WeatherDisplay:10.37,2013-11-08 10:33:00,
2013-11-08 04:38:00,33.6,32.1,30.36,WSW,250,0.0,0.0,94,0.00,CLR,,0.00,0.0,WeatherDisplay:10.37,2013-11-08 10:38:00,
2013-11-08 04:43:00,33.3,31.8,30.36,WSW,250,0.0,0.0,94,0.00,CLR,,0.00,0.0,WeatherDisplay:10.37,2013-11-08 10:43:00,
2013-11-08 04:48:00,33.4,31.9,30.36,WSW,250,0.0,0.0,94,0.00,CLR,,0.00,0.0,WeatherDisplay:10.37,2013-11-08 10:48:00,
2013-11-08 04:53:00,33.3,31.8,30.36,WSW,250,0.0,0.0,94,0.00,CLR,,0.00,0.0,WeatherDisplay:10.37,2013-11-08 10:53:00,
2013-11-08 04:58:00,33.3,31.8,30.36,WSW,250,0.0,0.0,94,0.00,CLR,,0.00,0.0,WeatherDisplay:10.37,2013-11-08 10:58:00,
2013-11-08 05:03:00,33.3,31.8,30.35,WSW,250,0.0,0.0,94,0.00,CLR,,0.00,0.0,WeatherDisplay:10.37,2013-11-08 11:03:00,
2013-11-08 05:08:00,33.1,31.6,30.35,WSW,250,0.0,0.0,94,0.00,CLR,,0.00,0.0,WeatherDisplay:10.37,2013-11-08 11:08:00,
2013-11-08 05:13:00,33.2,31.7,30.35,WSW,250,0.0,0.0,94,0.00,CLR,,0.00,0.0,WeatherDisplay:10.37,2013-11-08 11:13:00,
2013-11-08 05:18:00,32.9,31.4,30.36,WSW,250,0.0,0.0,94,0.00,CLR,,0.00,0.0,WeatherDisplay:10.37,2013-11-08 11:18:00,
2013-11-08 05:23:00,33.0,31.5,30.35,WSW,250,0.0,0.0,94,0.00,CLR,,0.00,0.0,WeatherDisplay:10.37,2013-11-08 11:23:00,
2013-11-08 05:28:00,33.0,31.5,30.35,WSW,250,0.0,0.0,94,0.00,CLR,,0.00,0.0,WeatherDisplay:10.37,2013-11-08 11:28:00,
2013-11-08 05:33:00,32.9,31.4,30.35,WSW,250,0.0,0.0,94,0.00,CLR,,0.00,0.0,WeatherDisplay:10.37,2013-11-08 11:33:00,
2013-11-08 05:38:00,32.8,31.3,30.35,WSW,250,0.0,0.0,94,0.00,CLR,,0.00,0.0,WeatherDisplay:10.37,2013-11-08 11:38:00,
2013-11-08 05:43:00,33.1,31.6,30.35,WSW,250,0.0,0.0,94,0.00,CLR,,0.00,0.0,WeatherDisplay:10.37,2013-11-08 11:43:00,
2013-11-08 05:48:00,33.1,31.6,30.35,WSW,250,0.0,0.0,94,0.00,CLR,,0.00,0.0,WeatherDisplay:10.37,2013-11-08 11:48:00,
2013-11-08 05:53:00,33.0,31.5,30.35,WSW,250,0.0,0.0,94,0.00,CLR,,0.00,0.0,WeatherDisplay:10.37,2013-11-08 11:53:00,
2013-11-08 05:58:00,33.0,31.5,30.35,WSW,250,0.0,0.0,94,0.00,CLR,,0.00,0.0,WeatherDisplay:10.37,2013-11-08 11:58:00,
2013-11-08 06:03:00,33.4,31.9,30.36,WSW,250,0.1,0.0,94,0.00,CLR,,0.00,0.0,WeatherDisplay:10.37,2013-11-08 12:03:00,
2013-11-08 06:08:00,33.2,31.7,30.36,WSW,250,0.0,0.0,94,0.00,CLR,,0.00,0.0,WeatherDisplay:10.37,2013-11-08 12:08:00,
2013-11-08 06:13:00,32.9,31.4,30.36,WSW,250,0.0,0.0,94,0.00,CLR,,0.00,0.0,WeatherDisplay:10.37,2013-11-08 12:13:00,
2013-11-08 06:18:00,33.0,31.5,30.36,WSW,250,0.0,0.0,94,0.00,CLR,,0.00,0.0,WeatherDisplay:10.37,2013-11-08 12:18:00,
2013-11-08 06:23:00,32.9,31.4,30.36,WSW,250,0.0,0.0,94,0.00,CLR,,0.00,0.0,WeatherDisplay:10.37,2013-11-08 12:23:00,
2013-11-08 06:28:00,32.8,31.3,30.36,WSW,250,0.0,0.0,94,0.00,CLR,,0.00,0.0,WeatherDisplay:10.37,2013-11-08 12:28:00,
2013-11-08 06:33:00,33.2,31.7,30.36,WSW,250,0.0,0.0,94,0.00,CLR,,0.00,0.0,WeatherDisplay:10.37,2013-11-08 12:33:00,
2013-11-08 06:38:00,33.3,31.8,30.36,WSW,250,0.0,0.0,94,0.00,CLR,,0.00,0.0,WeatherDisplay:10.37,2013-11-08 12:38:00,
2013-11-08 06:43:00,33.3,31.8,30.36,WSW,250,0.0,0.0,94,0.00,CLR,,0.00,0.0,WeatherDisplay:10.37,2013-11-08 12:43:00,
2013-11-08 06:48:00,33.1,31.6,30.36,WSW,250,0.0,0.0,94,0.00,CLR,,0.00,5.0,WeatherDisplay:10.37,2013-11-08 12:48:00,
2013-11-08 06:53:00,33.2,31.7,30.36,WSW,250,0.0,0.0,94,0.00,CLR,,0.00,7.0,WeatherDisplay:10.37,2013-11-08 12:53:00,
2013-11-08 06:58:00,33.2,31.7,30.36,WSW,250,0.0,0.0,94,0.00,CLR,,0.00,11.0,WeatherDisplay:10.37,2013-11-08 12:58:00,
2013-11-08 07:03:00,33.4,31.9,30.37,WSW,250,0.0,0.0,94,0.00,CLR,,0.00,14.0,WeatherDisplay:10.37,2013-11-08 13:03:00,
2013-11-08 07:08:00,33.8,32.3,30.37,WSW,250,0.0,0.0,94,0.00,CLR,,0.00,19.0,WeatherDisplay:10.37,2013-11-08 13:08:00,
2013-11-08 07:13:00,34.1,32.6,30.37,WSW,250,0.0,0.0,94,0.00,CLR,,0.00,23.0,WeatherDisplay:10.37,2013-11-08 13:13:00,
2013-11-08 07:18:00,34.1,32.6,30.37,WSW,250,0.0,0.0,94,0.00,CLR,,0.00,28.0,WeatherDisplay:10.37,2013-11-08 13:18:00,
2013-11-08 07:23:00,34.2,32.7,30.37,WSW,250,0.0,0.0,94,0.00,CLR,,0.00,63.0,WeatherDisplay:10.37,2013-11-08 13:23:00,
2013-11-08 07:28:00,34.6,33.1,30.37,WSW,250,0.0,0.0,94,0.00,CLR,,0.00,74.0,WeatherDisplay:10.37,2013-11-08 13:28:00,
2013-11-08 07:33:00,34.9,33.3,30.37,WSW,250,0.0,0.0,94,0.00,CLR,,0.00,95.0,WeatherDisplay:10.37,2013-11-08 13:33:00,
2013-11-08 07:39:00,35.7,34.1,30.37,WSW,250,0.0,0.0,94,0.00,CLR,,0.00,104.0,WeatherDisplay:10.37,2013-11-08 13:39:00,
2013-11-08 07:44:00,36.0,34.4,30.38,WSW,250,0.0,0.0,94,0.00,CLR,,0.00,109.0,WeatherDisplay:10.37,2013-11-08 13:44:00,
2013-11-08 07:49:00,36.7,35.1,30.37,WSW,250,0.0,0.0,94,0.00,CLR,,0.00,132.0,WeatherDisplay:10.37,2013-11-08 13:49:00,
2013-11-08 07:54:00,37.3,35.7,30.38,WSW,250,0.0,0.0,94,0.00,CLR,,0.00,165.0,WeatherDisplay:10.37,2013-11-08 13:54:00,
2013-11-08 07:59:00,38.6,37.0,30.38,WSW,250,0.0,0.0,94,0.00,CLR,,0.00,178.0,WeatherDisplay:10.37,2013-11-08 13:59:00,
2013-11-08 08:04:00,38.8,37.2,30.38,WSW,250,0.0,0.0,94,0.00,FEW,,0.00,202.0,WeatherDisplay:10.37,2013-11-08 14:04:00,
2013-11-08 08:09:00,39.3,38.0,30.38,WSW,250,0.0,0.0,95,0.00,FEW,,0.00,206.0,WeatherDisplay:10.37,2013-11-08 14:09:00,
2013-11-08 08:14:00,40.0,38.7,30.38,South,186,0.0,0.0,95,0.00,FEW,,0.00,216.0,WeatherDisplay:10.37,2013-11-08 14:14:00,
2013-11-08 08:19:00,40.7,39.1,30.38,SE,138,0.0,0.0,94,0.00,FEW,,0.00,223.0,WeatherDisplay:10.37,2013-11-08 14:19:00,
2013-11-08 08:24:00,40.9,39.6,30.38,East,96,2.3,2.3,95,0.00,FEW,,0.00,204.0,WeatherDisplay:10.37,2013-11-08 14:24:00,
2013-11-08 08:29:00,41.7,40.4,30.38,East,96,0.0,0.0,95,0.00,FEW,,0.00,223.0,WeatherDisplay:10.37,2013-11-08 14:29:00,
2013-11-08 08:34:00,41.9,40.3,30.38,East,96,1.9,2.3,94,0.00,BKN,,0.00,246.0,WeatherDisplay:10.37,2013-11-08 14:34:00,
2013-11-08 08:39:00,42.0,40.4,30.38,ESE,109,2.5,2.5,94,0.00,BKN,,0.00,251.0,WeatherDisplay:10.37,2013-11-08 14:39:00,
2013-11-08 08:44:00,42.9,40.7,30.38,ESE,121,1.9,2.3,92,0.00,BKN,,0.00,336.0,WeatherDisplay:10.37,2013-11-08 14:44:00,
2013-11-08 08:49:00,44.0,41.5,30.37,East,94,1.9,2.3,91,0.00,BKN,,0.00,281.0,WeatherDisplay:10.37,2013-11-08 14:49:00,
2013-11-08 08:54:00,44.2,40.9,30.37,NE,51,0.1,1.2,88,0.00,BKN,,0.00,178.0,WeatherDisplay:10.37,2013-11-08 14:54:00,
2013-11-08 08:59:00,45.2,42.2,30.37,NE,51,0.2,1.2,89,0.00,BKN,,0.00,357.0,WeatherDisplay:10.37,2013-11-08 14:59:00,
2013-11-08 09:04:00,45.7,41.8,30.37,NNE,32,3.1,3.5,86,0.00,OVC,,0.00,352.0,WeatherDisplay:10.37,2013-11-08 15:04:00,
2013-11-08 09:09:00,46.4,42.1,30.37,ESE,104,2.9,3.5,85,0.00,OVC,,0.00,348.0,WeatherDisplay:10.37,2013-11-08 15:09:00,
2013-11-08 09:14:00,47.0,42.1,30.37,NE,40,2.6,3.5,83,0.00,OVC,,0.00,339.0,WeatherDisplay:10.37,2013-11-08 15:14:00,
2013-11-08 09:19:00,48.0,43.7,30.37,SE,126,1.4,4.0,85,0.00,OVC,,0.00,410.0,WeatherDisplay:10.37,2013-11-08 15:19:00,
2013-11-08 09:24:00,48.2,42.6,30.37,East,92,1.1,2.3,81,0.00,OVC,,0.00,381.0,WeatherDisplay:10.37,2013-11-08 15:24:00,
2013-11-08 09:29:00,48.5,42.0,30.37,SE,128,3.7,6.9,78,0.00,OVC,,0.00,348.0,WeatherDisplay:10.37,2013-11-08 15:29:00,
2013-11-08 09:34:00,49.0,41.8,30.37,ESE,109,2.3,5.8,76,0.00,SCT,,0.00,454.0,WeatherDisplay:10.37,2013-11-08 15:34:00,
2013-11-08 09:39:00,49.9,43.0,30.37,NE,35,1.5,3.5,77,0.00,SCT,,0.00,410.0,WeatherDisplay:10.37,2013-11-08 15:39:00,
2013-11-08 09:44:00,50.6,43.3,30.37,North,5,0.7,2.3,76,0.00,SCT,,0.00,425.0,WeatherDisplay:10.37,2013-11-08 15:44:00,
2013-11-08 09:49:00,50.8,42.1,30.36,East,101,5.1,8.1,72,0.00,SCT,,0.00,431.0,WeatherDisplay:10.37,2013-11-08 15:49:00,
2013-11-08 09:54:00,51.0,42.3,30.36,ESE,123,0.9,2.3,72,0.00,SCT,,0.00,448.0,WeatherDisplay:10.37,2013-11-08 15:54:00,
2013-11-08 09:59:00,51.3,41.8,30.36,East,87,4.7,8.1,70,0.00,SCT,,0.00,420.0,WeatherDisplay:10.37,2013-11-08 15:59:00,
2013-11-08 10:04:00,52.3,43.2,30.36,ENE,65,2.0,2.3,71,0.00,CLR,,0.00,485.0,WeatherDisplay:10.37,2013-11-08 16:04:00,
2013-11-08 10:09:00,52.9,42.6,30.35,East,101,4.4,5.8,68,0.00,CLR,,0.00,519.0,WeatherDisplay:10.37,2013-11-08 16:09:00,
2013-11-08 10:14:00,53.3,41.4,30.35,East,92,6.2,9.2,64,0.00,CLR,,0.00,550.0,WeatherDisplay:10.37,2013-11-08 16:14:00,
2013-11-08 10:19:00,53.9,41.6,30.35,ESE,109,1.7,4.0,63,0.00,CLR,,0.00,469.0,WeatherDisplay:10.37,2013-11-08 16:19:00,
2013-11-08 10:24:00,54.4,40.8,30.35,SSE,159,4.3,6.9,60,0.00,CLR,,0.00,526.0,WeatherDisplay:10.37,2013-11-08 16:24:00,
2013-11-08 10:29:00,55.0,41.8,30.35,ESE,113,6.9,9.2,61,0.00,CLR,,0.00,554.0,WeatherDisplay:10.37,2013-11-08 16:29:00,
2013-11-08 10:34:00,54.9,41.3,30.35,ENE,76,5.2,9.2,60,0.00,CLR,,0.00,580.0,WeatherDisplay:10.37,2013-11-08 16:34:00,
2013-11-08 10:39:00,55.2,40.2,30.35,ESE,103,6.6,9.2,57,0.00,CLR,,0.00,568.0,WeatherDisplay:10.37,2013-11-08 16:39:00,
2013-11-08 10:44:00,55.5,40.0,30.35,East,94,2.9,4.0,56,0.00,CLR,,0.00,598.0,WeatherDisplay:10.37,2013-11-08 16:44:00,
2013-11-08 10:49:00,55.7,41.1,30.35,ESE,107,4.3,5.8,58,0.00,CLR,,0.00,610.0,WeatherDisplay:10.37,2013-11-08 16:49:00,
2013-11-08 10:54:00,56.3,40.8,30.34,ENE,73,6.2,9.2,56,0.00,CLR,,0.00,591.0,WeatherDisplay:10.37,2013-11-08 16:54:00,
2013-11-08 10:59:00,56.4,40.0,30.34,ESE,116,4.1,9.2,54,0.00,CLR,,0.00,589.0,WeatherDisplay:10.37,2013-11-08 16:59:00,
2013-11-08 11:04:00,57.3,40.8,30.34,SE,126,5.6,10.4,54,0.00,CLR,,0.00,563.0,WeatherDisplay:10.37,2013-11-08 17:04:00,
2013-11-08 11:09:00,57.0,39.5,30.34,East,85,2.4,6.9,52,0.00,CLR,,0.00,575.0,WeatherDisplay:10.37,2013-11-08 17:09:00,
2013-11-08 11:14:00,57.3,40.3,30.34,South,172,4.0,8.1,53,0.00,CLR,,0.00,585.0,WeatherDisplay:10.37,2013-11-08 17:14:00,
2013-11-08 11:19:00,57.7,39.7,30.33,ENE,69,4.9,7.9,51,0.00,CLR,,0.00,610.0,WeatherDisplay:10.37,2013-11-08 17:19:00,
2013-11-08 11:24:00,58.6,41.0,30.33,East,98,3.3,4.0,52,0.00,CLR,,0.00,587.0,WeatherDisplay:10.37,2013-11-08 17:24:00,
2013-11-08 11:29:00,59.0,40.9,30.33,SE,137,4.3,8.1,51,0.00,CLR,,0.00,624.0,WeatherDisplay:10.37,2013-11-08 17:29:00,
2013-11-08 11:34:00,58.6,39.0,30.32,SSE,163,5.9,10.4,48,0.00,CLR,,0.00,601.0,WeatherDisplay:10.37,2013-11-08 17:34:00,
2013-11-08 11:39:00,58.6,40.5,30.31,ESE,116,6.1,9.2,51,0.00,CLR,,0.00,531.0,WeatherDisplay:10.37,2013-11-08 17:39:00,
2013-11-08 11:44:00,58.8,40.2,30.31,East,96,2.7,6.6,50,0.00,CLR,,0.00,536.0,WeatherDisplay:10.37,2013-11-08 17:44:00,
2013-11-08 11:49:00,59.0,39.9,30.31,East,90,4.7,6.9,49,0.00,CLR,,0.00,526.0,WeatherDisplay:10.37,2013-11-08 17:49:00,
2013-11-08 11:54:00,59.3,39.1,30.31,ESE,102,4.3,10.4,47,0.00,CLR,,0.00,338.0,WeatherDisplay:10.37,2013-11-08 17:54:00,
2013-11-08 11:59:00,59.3,39.6,30.30,ENE,70,4.8,8.1,48,0.00,CLR,,0.00,524.0,WeatherDisplay:10.37,2013-11-08 17:59:00,
2013-11-08 12:04:00,59.3,40.1,30.29,East,81,5.8,6.9,49,0.00,CLR,,0.00,513.0,WeatherDisplay:10.37,2013-11-08 18:04:00,
2013-11-08 12:09:00,59.6,39.3,30.29,ENE,74,6.7,6.9,47,0.00,CLR,,0.00,628.0,WeatherDisplay:10.37,2013-11-08 18:09:00,
2013-11-08 12:14:00,59.1,39.4,30.29,SSE,156,2.5,3.5,48,0.00,CLR,,0.00,585.0,WeatherDisplay:10.37,2013-11-08 18:14:00,
2013-11-08 12:19:00,60.2,40.4,30.29,SE,145,5.8,8.1,48,0.00,CLR,,0.00,591.0,WeatherDisplay:10.37,2013-11-08 18:19:00,
2013-11-08 12:24:00,60.4,40.1,30.28,East,98,3.7,9.2,47,0.00,CLR,,0.00,585.0,WeatherDisplay:10.37,2013-11-08 18:24:00,
2013-11-08 12:29:00,60.4,39.5,30.28,East,80,5.5,9.2,46,0.00,CLR,,0.00,563.0,WeatherDisplay:10.37,2013-11-08 18:29:00,
2013-11-08 12:34:00,60.3,40.0,30.27,East,89,4.2,6.6,47,0.00,CLR,,0.00,610.0,WeatherDisplay:10.37,2013-11-08 18:34:00,
2013-11-08 12:39:00,60.5,40.7,30.27,ENE,61,6.6,9.2,48,0.00,CLR,,0.00,621.0,WeatherDisplay:10.37,2013-11-08 18:39:00,
2013-11-08 12:44:00,60.6,40.2,30.26,SE,124,9.8,11.5,47,0.00,CLR,,0.00,654.0,WeatherDisplay:10.37,2013-11-08 18:44:00,
2013-11-08 12:49:00,61.3,40.3,30.26,East,83,5.2,6.9,46,0.00,CLR,,0.00,608.0,WeatherDisplay:10.37,2013-11-08 18:49:00,
2013-11-08 12:54:00,61.6,40.0,30.26,SE,128,4.7,10.4,45,0.00,CLR,,0.00,584.0,WeatherDisplay:10.37,2013-11-08 18:54:00,
2013-11-08 12:59:00,61.6,40.6,30.25,SE,125,6.3,9.2,46,0.00,CLR,,0.00,519.0,WeatherDisplay:10.37,2013-11-08 18:59:00,
2013-11-08 13:04:00,61.9,40.9,30.25,ESE,108,4.9,5.8,46,0.00,CLR,,0.00,633.0,WeatherDisplay:10.37,2013-11-08 19:04:00,
2013-11-08 13:09:00,62.3,41.8,30.25,SE,130,4.9,7.9,47,0.00,CLR,,0.00,656.0,WeatherDisplay:10.37,2013-11-08 19:09:00,
2013-11-08 13:14:00,62.0,40.4,30.25,SE,146,6.3,10.6,45,0.00,CLR,,0.00,633.0,WeatherDisplay:10.37,2013-11-08 19:14:00,
2013-11-08 13:19:00,62.3,41.8,30.24,SE,137,7.1,8.1,47,0.00,CLR,,0.00,538.0,WeatherDisplay:10.37,2013-11-08 19:19:00,
2013-11-08 13:24:00,62.4,41.3,30.24,East,86,5.4,7.9,46,0.00,CLR,,0.00,626.0,WeatherDisplay:10.37,2013-11-08 19:24:00,
2013-11-08 13:29:00,62.7,41.6,30.24,SSW,199,1.8,5.8,46,0.00,CLR,,0.00,554.0,WeatherDisplay:10.37,2013-11-08 19:29:00,
2013-11-08 13:34:00,63.0,42.4,30.23,ESE,102,3.1,6.9,47,0.00,CLR,,0.00,504.0,WeatherDisplay:10.37,2013-11-08 19:34:00,
2013-11-08 13:39:00,62.5,41.4,30.23,SSE,149,7.0,10.4,46,0.00,CLR,,0.00,446.0,WeatherDisplay:10.37,2013-11-08 19:39:00,
2013-11-08 13:44:00,62.2,42.3,30.23,East,99,1.4,2.3,48,0.00,CLR,,0.00,431.0,WeatherDisplay:10.37,2013-11-08 19:44:00,
2013-11-08 13:49:00,62.3,41.8,30.23,East,100,7.0,10.4,47,0.00,CLR,,0.00,373.0,WeatherDisplay:10.37,2013-11-08 19:49:00,
2013-11-08 13:54:00,62.0,42.6,30.23,ESE,111,3.9,5.8,49,0.00,CLR,,0.00,315.0,WeatherDisplay:10.37,2013-11-08 19:54:00,
2013-11-08 13:59:00,61.6,41.7,30.23,ESE,113,6.2,9.2,48,0.00,CLR,,0.00,295.0,WeatherDisplay:10.37,2013-11-08 19:59:00,
2013-11-08 14:04:00,61.3,41.4,30.22,SE,137,7.4,10.4,48,0.00,CLR,,0.00,350.0,WeatherDisplay:10.37,2013-11-08 20:04:00,
2013-11-08 14:09:00,61.5,41.6,30.22,ESE,110,6.0,8.1,48,0.00,CLR,,0.00,418.0,WeatherDisplay:10.37,2013-11-08 20:09:00,
2013-11-08 14:14:00,61.8,41.9,30.22,East,96,3.3,4.0,48,0.00,CLR,,0.00,320.0,WeatherDisplay:10.37,2013-11-08 20:14:00,
2013-11-08 14:19:00,61.8,42.4,30.21,ENE,69,5.0,10.4,49,0.00,CLR,,0.00,494.0,WeatherDisplay:10.37,2013-11-08 20:19:00,
2013-11-08 14:24:00,62.6,43.2,30.21,ESE,123,5.9,9.2,49,0.00,CLR,,0.00,415.0,WeatherDisplay:10.37,2013-11-08 20:24:00,
2013-11-08 14:29:00,62.4,41.9,30.21,East,99,4.6,6.9,47,0.00,CLR,,0.00,424.0,WeatherDisplay:10.37,2013-11-08 20:29:00,
2013-11-08 14:34:00,62.7,41.6,30.21,SE,142,5.2,9.2,46,0.00,CLR,,0.00,404.0,WeatherDisplay:10.37,2013-11-08 20:34:00,
2013-11-08 14:39:00,62.7,42.2,30.21,SE,128,6.2,9.2,47,0.00,CLR,,0.00,399.0,WeatherDisplay:10.37,2013-11-08 20:39:00,
2013-11-08 14:44:00,62.6,42.1,30.21,SE,129,1.2,3.5,47,0.00,CLR,,0.00,334.0,WeatherDisplay:10.37,2013-11-08 20:44:00,
2013-11-08 14:49:00,63.2,42.6,30.20,ENE,72,1.3,8.1,47,0.00,CLR,,0.00,373.0,WeatherDisplay:10.37,2013-11-08 20:49:00,
2013-11-08 14:54:00,63.3,42.7,30.20,South,175,3.0,6.9,47,0.00,CLR,,0.00,397.0,WeatherDisplay:10.37,2013-11-08 20:54:00,
2013-11-08 14:59:00,63.6,42.4,30.20,ENE,78,4.9,10.6,46,0.00,CLR,,0.00,422.0,WeatherDisplay:10.37,2013-11-08 20:59:00,
2013-11-08 15:04:00,63.5,42.3,30.20,East,92,5.5,8.1,46,0.00,CLR,,0.00,364.0,WeatherDisplay:10.37,2013-11-08 21:04:00,
2013-11-08 15:09:00,63.4,42.2,30.19,SE,127,4.9,8.1,46,0.00,CLR,,0.00,304.0,WeatherDisplay:10.37,2013-11-08 21:09:00,
2013-11-08 15:14:00,63.7,41.4,30.19,SE,128,4.7,9.2,44,0.00,CLR,,0.00,265.0,WeatherDisplay:10.37,2013-11-08 21:14:00,
2013-11-08 15:19:00,63.8,40.9,30.19,SW,216,6.5,9.2,43,0.00,CLR,,0.00,197.0,WeatherDisplay:10.37,2013-11-08 21:19:00,
2013-11-08 15:24:00,63.6,40.7,30.19,ESE,103,2.5,6.9,43,0.00,CLR,,0.00,146.0,WeatherDisplay:10.37,2013-11-08 21:24:00,
2013-11-08 15:29:00,63.0,41.3,30.19,SW,215,3.0,5.8,45,0.00,CLR,,0.00,86.0,WeatherDisplay:10.37,2013-11-08 21:29:00,
2013-11-08 15:34:00,62.3,41.2,30.19,SE,138,0.0,1.2,46,0.00,CLR,,0.00,74.0,WeatherDisplay:10.37,2013-11-08 21:34:00,
2013-11-08 15:39:00,61.8,40.8,30.19,ESE,115,2.7,3.5,46,0.00,CLR,,0.00,83.0,WeatherDisplay:10.37,2013-11-08 21:39:00,
2013-11-08 15:44:00,61.7,40.7,30.20,ESE,106,0.9,3.5,46,0.00,CLR,,0.00,111.0,WeatherDisplay:10.37,2013-11-08 21:44:00,
2013-11-08 15:49:00,61.7,40.7,30.19,ESE,123,1.7,2.3,46,0.00,CLR,,0.00,139.0,WeatherDisplay:10.37,2013-11-08 21:49:00,
2013-11-08 15:54:00,61.5,42.2,30.19,ESE,119,0.0,0.0,49,0.00,CLR,,0.00,149.0,WeatherDisplay:10.37,2013-11-08 21:54:00,
2013-11-08 15:59:00,61.8,41.9,30.19,SE,134,0.4,1.2,48,0.00,CLR,,0.00,149.0,WeatherDisplay:10.37,2013-11-08 21:59:00,
2013-11-08 16:04:00,61.9,42.0,30.19,SSE,151,0.0,0.0,48,0.00,CLR,,0.00,120.0,WeatherDisplay:10.37,2013-11-08 22:04:00,
2013-11-08 16:09:00,61.7,42.9,30.20,ESE,115,0.1,1.3,50,0.00,CLR,,0.00,98.0,WeatherDisplay:10.37,2013-11-08 22:09:00,
2013-11-08 16:14:00,61.4,42.1,30.19,SE,136,0.0,2.3,49,0.00,CLR,,0.00,77.0,WeatherDisplay:10.37,2013-11-08 22:14:00,
2013-11-08 16:19:00,60.9,41.6,30.19,SE,136,0.7,1.3,49,0.00,CLR,,0.00,74.0,WeatherDisplay:10.37,2013-11-08 22:19:00,
2013-11-08 16:24:00,60.5,42.3,30.19,SE,124,0.0,1.2,51,0.00,CLR,,0.00,70.0,WeatherDisplay:10.37,2013-11-08 22:24:00,
2013-11-08 16:29:00,60.3,42.1,30.19,SE,129,0.0,0.0,51,0.00,CLR,,0.00,58.0,WeatherDisplay:10.37,2013-11-08 22:29:00,
2013-11-08 16:34:00,59.9,43.2,30.19,SE,129,0.0,0.0,54,0.00,CLR,,0.00,44.0,WeatherDisplay:10.37,2013-11-08 22:34:00,
2013-11-08 16:39:00,59.2,42.6,30.18,SE,129,0.0,0.0,54,0.00,CLR,,0.00,39.0,WeatherDisplay:10.37,2013-11-08 22:39:00,
2013-11-08 16:44:00,58.4,43.7,30.18,SE,129,0.0,0.0,58,0.00,CLR,,0.00,28.0,WeatherDisplay:10.37,2013-11-08 22:44:00,
2013-11-08 16:49:00,57.5,43.7,30.18,SE,129,0.0,0.0,60,0.00,CLR,,0.00,19.0,WeatherDisplay:10.37,2013-11-08 22:49:00,
2013-11-08 16:54:00,56.8,44.3,30.18,SE,129,0.0,0.0,63,0.00,CLR,,0.00,16.0,WeatherDisplay:10.37,2013-11-08 22:54:00,
2013-11-08 16:59:00,56.0,44.0,30.18,SE,129,0.0,0.0,64,0.00,CLR,,0.00,11.0,WeatherDisplay:10.37,2013-11-08 22:59:00,
2013-11-08 17:04:00,55.4,44.6,30.18,SE,129,0.0,0.0,67,0.00,CLR,,0.00,7.0,WeatherDisplay:10.37,2013-11-08 23:04:00,
2013-11-08 17:09:00,55.0,43.8,30.18,SE,129,0.0,0.0,66,0.00,CLR,,0.00,0.0,WeatherDisplay:10.37,2013-11-08 23:09:00,
2013-11-08 17:14:00,55.2,43.6,30.18,SE,129,0.0,0.0,65,0.00,CLR,,0.00,0.0,WeatherDisplay:10.37,2013-11-08 23:14:00,
2013-11-08 17:19:00,55.3,43.3,30.17,SE,129,0.0,0.0,64,0.00,CLR,,0.00,0.0,WeatherDisplay:10.37,2013-11-08 23:19:00,
2013-11-08 17:24:00,55.2,42.8,30.17,SE,129,0.0,0.0,63,0.00,CLR,,0.00,0.0,WeatherDisplay:10.37,2013-11-08 23:24:00,
2013-11-08 17:29:00,55.2,42.0,30.17,SE,127,0.2,1.2,61,0.00,CLR,,0.00,0.0,WeatherDisplay:10.37,2013-11-08 23:29:00,
2013-11-08 17:34:00,55.4,41.7,30.17,SE,127,0.0,0.0,60,0.00,CLR,,0.00,0.0,WeatherDisplay:10.37,2013-11-08 23:34:00,
2013-11-08 17:39:00,55.5,41.4,30.17,SE,140,0.0,0.0,59,0.00,CLR,,0.00,0.0,WeatherDisplay:10.37,2013-11-08 23:39:00,
2013-11-08 17:44:00,55.5,42.7,30.17,SE,140,0.0,0.0,62,0.00,CLR,,0.00,0.0,WeatherDisplay:10.37,2013-11-08 23:44:00,
2013-11-08 17:49:00,54.4,43.3,30.17,SE,140,0.0,0.0,66,0.00,CLR,,0.00,0.0,WeatherDisplay:10.37,2013-11-08 23:49:00,
2013-11-08 17:54:00,53.1,43.2,30.17,SE,140,0.0,0.0,69,0.00,CLR,,0.00,0.0,WeatherDisplay:10.37,2013-11-08 23:54:00,
2013-11-08 17:59:00,52.5,42.6,30.17,SE,140,0.0,0.0,69,0.00,CLR,,0.00,0.0,WeatherDisplay:10.37,2013-11-08 23:59:00,
2013-11-08 18:04:00,51.9,43.2,30.17,SE,140,0.0,0.0,72,0.00,CLR,,0.00,0.0,WeatherDisplay:10.37,2013-11-09 00:04:00,
2013-11-08 18:09:00,51.7,42.6,30.17,SE,140,0.0,0.0,71,0.00,CLR,,0.00,0.0,WeatherDisplay:10.37,2013-11-09 00:09:00,
2013-11-08 18:14:00,51.9,42.8,30.18,SE,140,0.0,0.0,71,0.00,CLR,,0.00,0.0,WeatherDisplay:10.37,2013-11-09 00:14:00,
2013-11-08 18:19:00,52.0,42.5,30.17,SE,140,0.0,0.0,70,0.00,CLR,,0.00,0.0,WeatherDisplay:10.37,2013-11-09 00:19:00,
2013-11-08 18:24:00,51.4,43.0,30.17,SE,140,0.0,0.0,73,0.00,CLR,,0.00,0.0,WeatherDisplay:10.37,2013-11-09 00:24:00,
2013-11-08 18:29:00,50.9,42.9,30.17,SE,140,0.0,0.0,74,0.00,CLR,,0.00,0.0,WeatherDisplay:10.37,2013-11-09 00:29:00,
2013-11-08 18:34:00,50.7,42.4,30.17,SE,140,0.0,0.0,73,0.00,CLR,,0.00,0.0,WeatherDisplay:10.37,2013-11-09 00:34:00,
2013-11-08 18:39:00,50.7,42.4,30.17,SE,140,0.0,0.0,73,0.00,CLR,,0.00,0.0,WeatherDisplay:10.37,2013-11-09 00:39:00,
2013-11-08 18:44:00,50.6,42.6,30.17,SE,140,0.0,0.0,74,0.00,CLR,,0.00,0.0,WeatherDisplay:10.37,2013-11-09 00:44:00,
2013-11-08 18:49:00,50.3,42.0,30.17,SE,140,0.0,0.0,73,0.00,CLR,,0.00,0.0,WeatherDisplay:10.37,2013-11-09 00:49:00,
2013-11-08 18:54:00,49.7,42.1,30.17,SE,140,0.0,0.0,75,0.00,CLR,,0.00,0.0,WeatherDisplay:10.37,2013-11-09 00:54:00,
2013-11-08 18:59:00,49.5,42.6,30.17,SE,140,0.0,0.0,77,0.00,CLR,,0.00,0.0,WeatherDisplay:10.37,2013-11-09 00:59:00,
2013-11-08 19:04:00,49.4,42.5,30.17,SE,140,0.0,0.0,77,0.00,CLR,,0.00,0.0,WeatherDisplay:10.37,2013-11-09 01:04:00,
2013-11-08 19:09:00,49.2,42.6,30.17,SE,140,0.0,0.0,78,0.00,CLR,,0.00,0.0,WeatherDisplay:10.37,2013-11-09 01:09:00,
2013-11-08 19:14:00,48.5,42.3,30.17,SE,140,0.0,0.0,79,0.00,CLR,,0.00,0.0,WeatherDisplay:10.37,2013-11-09 01:14:00,
2013-11-08 19:19:00,47.8,41.9,30.17,SE,140,0.0,0.0,80,0.00,CLR,,0.00,0.0,WeatherDisplay:10.37,2013-11-09 01:19:00,
2013-11-08 19:24:00,47.6,42.1,30.17,SE,140,2.1,2.6,81,0.00,CLR,,0.00,0.0,WeatherDisplay:10.37,2013-11-09 01:24:00,
2013-11-08 19:29:00,47.4,41.9,30.17,SE,140,0.0,1.2,81,0.00,CLR,,0.00,0.0,WeatherDisplay:10.37,2013-11-09 01:29:00,
2013-11-08 19:34:00,47.4,42.2,30.17,SE,140,0.0,0.0,82,0.00,CLR,,0.00,0.0,WeatherDisplay:10.37,2013-11-09 01:34:00,
2013-11-08 19:39:00,47.2,42.3,30.17,SE,140,0.0,0.0,83,0.00,CLR,,0.00,0.0,WeatherDisplay:10.37,2013-11-09 01:39:00,
2013-11-08 19:44:00,47.2,42.3,30.17,SE,140,0.0,0.0,83,0.00,CLR,,0.00,0.0,WeatherDisplay:10.37,2013-11-09 01:44:00,
2013-11-08 19:49:00,47.1,42.2,30.16,SE,140,0.0,0.0,83,0.00,CLR,,0.00,0.0,WeatherDisplay:10.37,2013-11-09 01:49:00,
2013-11-08 19:54:00,46.9,42.0,30.17,SE,140,0.0,0.0,83,0.00,CLR,,0.00,0.0,WeatherDisplay:10.37,2013-11-09 01:54:00,
2013-11-08 19:59:00,46.8,42.2,30.17,SE,140,0.0,0.0,84,0.00,CLR,,0.00,0.0,WeatherDisplay:10.37,2013-11-09 01:59:00,
2013-11-08 20:04:00,46.6,42.3,30.17,SE,140,0.0,0.0,85,0.00,CLR,,0.00,0.0,WeatherDisplay:10.37,2013-11-09 02:04:00,
2013-11-08 20:09:00,46.3,42.0,30.17,SE,140,0.0,0.0,85,0.00,CLR,,0.00,0.0,WeatherDisplay:10.37,2013-11-09 02:09:00,
2013-11-08 20:14:00,46.3,42.0,30.17,SE,140,0.0,0.0,85,0.00,CLR,,0.00,0.0,WeatherDisplay:10.37,2013-11-09 02:14:00,
2013-11-08 20:19:00,46.4,42.4,30.17,SE,140,0.0,0.0,86,0.00,CLR,,0.00,0.0,WeatherDisplay:10.37,2013-11-09 02:19:00,
2013-11-08 20:24:00,46.4,42.1,30.17,SE,140,0.0,0.0,85,0.00,CLR,,0.00,0.0,WeatherDisplay:10.37,2013-11-09 02:24:00,
2013-11-08 20:29:00,46.3,42.0,30.17,SE,140,0.0,0.0,85,0.00,CLR,,0.00,0.0,WeatherDisplay:10.37,2013-11-09 02:29:00,
2013-11-08 20:34:00,46.2,41.9,30.17,SE,140,0.0,0.0,85,0.00,CLR,,0.00,0.0,WeatherDisplay:10.37,2013-11-09 02:34:00,
2013-11-08 20:39:00,46.0,41.7,30.17,SE,140,0.0,0.0,85,0.00,CLR,,0.00,0.0,WeatherDisplay:10.37,2013-11-09 02:39:00,
2013-11-08 20:44:00,45.9,41.9,30.16,SE,140,0.0,0.0,86,0.00,CLR,,0.00,0.0,WeatherDisplay:10.37,2013-11-09 02:44:00,
2013-11-08 20:49:00,45.9,41.9,30.16,SE,140,0.0,0.0,86,0.00,CLR,,0.00,0.0,WeatherDisplay:10.37,2013-11-09 02:49:00,
2013-11-08 20:54:00,46.0,42.0,30.16,SE,140,0.0,0.0,86,0.00,CLR,,0.00,0.0,WeatherDisplay:10.37,2013-11-09 02:54:00,
2013-11-08 20:59:00,45.9,42.2,30.16,SE,140,0.0,0.0,87,0.00,CLR,,0.00,0.0,WeatherDisplay:10.37,2013-11-09 02:59:00,
2013-11-08 21:04:00,46.0,42.3,30.16,SE,140,0.0,0.0,87,0.00,CLR,,0.00,0.0,WeatherDisplay:10.37,2013-11-09 03:04:00,
2013-11-08 21:10:00,46.0,42.0,30.16,SE,140,0.0,0.0,86,0.00,CLR,,0.00,0.0,WeatherDisplay:10.37,2013-11-09 03:10:00,
2013-11-08 21:15:00,45.7,41.8,30.16,SE,140,0.0,0.0,86,0.00,CLR,,0.00,0.0,WeatherDisplay:10.37,2013-11-09 03:15:00,
2013-11-08 21:20:00,45.6,42.0,30.16,SE,140,0.0,0.0,87,0.00,CLR,,0.00,0.0,WeatherDisplay:10.37,2013-11-09 03:20:00,
2013-11-08 21:25:00,45.5,41.9,30.16,SE,140,0.0,0.0,87,0.00,CLR,,0.00,0.0,WeatherDisplay:10.37,2013-11-09 03:25:00,
2013-11-08 21:30:00,45.3,41.7,30.16,SE,140,0.0,0.0,87,0.00,CLR,,0.00,0.0,WeatherDisplay:10.37,2013-11-09 03:30:00,
2013-11-08 21:35:00,45.2,41.9,30.16,SE,140,0.0,0.0,88,0.00,CLR,,0.00,0.0,WeatherDisplay:10.37,2013-11-09 03:35:00,
2013-11-08 21:40:00,45.2,41.9,30.16,SE,140,0.0,0.0,88,0.00,CLR,,0.00,0.0,WeatherDisplay:10.37,2013-11-09 03:40:00,
2013-11-08 21:45:00,45.2,41.9,30.16,SE,140,0.0,0.0,88,0.00,CLR,,0.00,0.0,WeatherDisplay:10.37,2013-11-09 03:45:00,
2013-11-08 21:50:00,45.0,41.7,30.17,SE,140,0.0,0.0,88,0.00,CLR,,0.00,0.0,WeatherDisplay:10.37,2013-11-09 03:50:00,
2013-11-08 21:55:00,44.9,41.6,30.17,SE,140,1.0,2.3,88,0.00,CLR,,0.00,0.0,WeatherDisplay:10.37,2013-11-09 03:55:00,
2013-11-08 22:00:00,44.8,41.5,30.17,SE,140,0.0,0.0,88,0.00,CLR,,0.00,0.0,WeatherDisplay:10.37,2013-11-09 04:00:00,
2013-11-08 22:05:00,44.6,41.3,30.17,SE,140,0.0,0.0,88,0.00,CLR,,0.00,0.0,WeatherDisplay:10.37,2013-11-09 04:05:00,
2013-11-08 22:10:00,44.6,41.6,30.17,SE,140,0.0,0.0,89,0.00,CLR,,0.00,0.0,WeatherDisplay:10.37,2013-11-09 04:10:00,
2013-11-08 22:15:00,44.8,41.8,30.17,SE,140,0.0,0.0,89,0.00,CLR,,0.00,0.0,WeatherDisplay:10.37,2013-11-09 04:15:00,
2013-11-08 22:20:00,44.9,41.9,30.17,SE,140,0.0,0.0,89,0.00,CLR,,0.00,0.0,WeatherDisplay:10.37,2013-11-09 04:20:00,
2013-11-08 22:25:00,44.6,41.3,30.17,SE,140,0.0,0.0,88,0.00,CLR,,0.00,0.0,WeatherDisplay:10.37,2013-11-09 04:25:00,
2013-11-08 22:30:00,44.5,41.5,30.17,SE,140,0.0,0.0,89,0.00,CLR,,0.00,0.0,WeatherDisplay:10.37,2013-11-09 04:30:00,
2013-11-08 22:35:00,44.4,41.4,30.17,SE,140,0.0,0.0,89,0.00,CLR,,0.00,0.0,WeatherDisplay:10.37,2013-11-09 04:35:00,
2013-11-08 22:40:00,44.2,41.2,30.17,SE,140,0.0,0.0,89,0.00,CLR,,0.00,0.0,WeatherDisplay:10.37,2013-11-09 04:40:00,
2013-11-08 22:45:00,44.0,41.0,30.17,SE,140,0.0,0.0,89,0.00,CLR,,0.00,0.0,WeatherDisplay:10.37,2013-11-09 04:45:00,
2013-11-08 22:50:00,44.2,41.2,30.17,SE,140,0.0,0.0,89,0.00,CLR,,0.00,0.0,WeatherDisplay:10.37,2013-11-09 04:50:00,
2013-11-08 22:55:00,44.2,41.2,30.17,SE,140,0.0,0.0,89,0.00,CLR,,0.00,0.0,WeatherDisplay:10.37,2013-11-09 04:55:00,
2013-11-08 23:00:00,44.2,41.2,30.17,SE,140,0.0,0.0,89,0.00,CLR,,0.00,0.0,WeatherDisplay:10.37,2013-11-09 05:00:00,
2013-11-08 23:01:00,44.1,41.1,30.17,SE,140,0.0,0.0,89,0.00,CLR,,0.00,0.0,WeatherDisplay:10.37,2013-11-09 05:01:00,
2013-11-08 23:02:00,44.1,41.1,30.17,SE,140,0.0,0.0,89,0.00,CLR,,0.00,0.0,WeatherDisplay:10.37,2013-11-09 05:02:00,
2013-11-08 23:03:00,44.0,41.0,30.16,SE,140,0.0,0.0,89,0.00,CLR,,0.00,0.0,WeatherDisplay:10.37,2013-11-09 05:03:00,
2013-11-08 23:08:00,43.8,40.8,30.16,SE,140,0.0,0.0,89,0.00,CLR,,0.00,0.0,WeatherDisplay:10.37,2013-11-09 05:08:00,
2013-11-08 23:13:00,43.5,40.5,30.16,SE,140,0.0,0.0,89,0.00,CLR,,0.00,0.0,WeatherDisplay:10.37,2013-11-09 05:13:00,
2013-11-08 23:18:00,43.1,40.4,30.16,SE,140,0.0,0.0,90,0.00,CLR,,0.00,0.0,WeatherDisplay:10.37,2013-11-09 05:18:00,
2013-11-08 23:23:00,43.1,40.4,30.17,SE,140,0.0,0.0,90,0.00,CLR,,0.00,0.0,WeatherDisplay:10.37,2013-11-09 05:23:00,
2013-11-08 23:28:00,43.1,40.7,30.17,SE,140,0.0,0.0,91,0.00,CLR,,0.00,0.0,WeatherDisplay:10.37,2013-11-09 05:28:00,
2013-11-08 23:33:00,43.0,40.6,30.16,SE,140,0.0,0.0,91,0.00,CLR,,0.00,0.0,WeatherDisplay:10.37,2013-11-09 05:33:00,
2013-11-08 23:38:00,42.9,40.5,30.16,SE,140,0.0,0.0,91,0.00,CLR,,0.00,0.0,WeatherDisplay:10.37,2013-11-09 05:38:00,
2013-11-08 23:43:00,42.9,40.5,30.17,SE,140,0.0,0.0,91,0.00,CLR,,0.00,0.0,WeatherDisplay:10.37,2013-11-09 05:43:00,
2013-11-08 23:48:00,42.8,40.4,30.17,SE,140,1.7,2.3,91,0.00,CLR,,0.00,0.0,WeatherDisplay:10.37,2013-11-09 05:48:00,
2013-11-08 23:53:00,42.7,40.3,30.17,SE,140,0.0,0.0,91,0.00,CLR,,0.00,0.0,WeatherDisplay:10.37,2013-11-09 05:53:00,
2013-11-08 23:58:00,42.6,40.2,30.17,SE,140,0.0,0.0,91,0.00,CLR,,0.00,0.0,WeatherDisplay:10.37,2013-11-09 05:58:00,